EHI
0 0 0 0 0 0 0 0 0 0 0 0 0 0 0 0 0 0 0 0 0 0 0 0 0 0 0 0 0 0 0 0 0 0 0 0 0 0 0 0 0 0 0 0
0 0 0 0 0 0 0 0 0 0 0 0 0 0 0 0 0 0 0 0 0 0 0 0 0 0 0 0 0 0 0 0 0 0 0 0 0 0 0 0 0 0 0 0
0 0 0 0 0 0 0 0 0 0 0 0 0 0 0 0 0 0 0 0 0 0 0 0 0 0 0 0 0 0 0 0 0 0 0 0 0 0 0 0 0 0 0 0
0 0 0 0 0 0 0 0 0 0 0 0 0 0 0 0 0 0 0 0 0 0 0 0 0 0 0 0 0 0 0 0 0 0 0 0 0 0 0 0 0 0 0 0
0 0 0 0 0 0 0 0 0 0 0 0 0 0 0 0 0 0 0 0 0 0 0 0 0 0 0 0 0 0 0 0 0 0 0 0 0 0 0 0 0 0 0 0
0 0 0 0 0 0 0 0 0 0 0 0 0 0 0 0 0 0 0 0 0 0 0 0 0 0 0 0 0 0 0 0 0 0 0 0 0 0 0 0 0 0 0 0
0 0 0 0 0 0 0 0 0 0 0 0 0 0 0 0 0 0 0 0 0 0 0 0 0 0 0 0 0 0 0 0 0 0 0 0 0 0 0 0 0 0 0 0
0 0 0 0 0 0 0 0 0 0 0 0 0 0 0 0 0 0 0 0 0 0 0 0 0 0 0 0 0 0 0 0 0 0 0 0 0 0 0 0 0 0 0 0
0 0 0 0 0 0 0 0 0 0 0 0 0 0 0 0 0 0 0 0 0 0 0 0 0 0 0 0 0 0 0 0 0 0 0 0 0 0 0 0 0 0 0 0
0 0 0 0 0 0 0 0 0 0 0 0 0 0 0 0 0 0 0 0 0 0 0 0 0 0 0 0 0 0 0 0 0 0 0 0 0 0 0 0 0 0 0 0
0 0 0 0 0 0 0 0 0 0 0 0 0 0 0 0 0 0 0 0 0 0 0 0 0 0 0 0 0 0 0 0 0 0 0 0 0 0 0 0 0 0 0 0
0 0 0 0 0 0 0 0 0 0 0 0 0 0 0 0 0 0 0 0 0 0 0 0 0 0 0 0 0 0 0 0 0 0 0 0 0 0 0 0 0 0 0 0
0 0 0 0 0 0 0 0 0 0 0 0 0 0 0 0 0 0 0 0 0 0 0 0 0 0 0 0 0 0 0 0 0 0 0 0 0 0 0 0 0 0 0 0
0 0 0 0 0 0 0 0 0 0 0 0 0 0 0 0 0 0 0 0 0 0 0 0 0 0 0 0 0 0 0 0 0 0 0 0 0 0 0 0 0 0 0 0
0 0 0 0 0 0 0 0 0 0 0 0 0 0 0 0 0 0 0 0 0 0 0 0 0 0 0 0 0 0 0 0 0 0 0 0 0 0 0 0 0 0 0 0
0 0 0 0 0 0 0 0 0 0 0 0 0 0 0 0 0 0 0 0 0 0 0 0 0 0 0 0 0 0 0 0 0 0 0 0 0 0 0 0 0 0 0 0
0 0 0 0 0 0 0 0 0 0 0 0 0 0 0 0 0 0 0 0 0 0 0 0 0 0 0 0 0 0 0 0 0 0 0 0 0 0 0 0 0 0 0 0
0 0 0 0 0 0 0 0 0 0 0 0 0 0 0 0 0 0 0 0 0 0 0 0 0 0 0 0 0 0 0 0 0 0 0 0 0 0 0 0 0 0 0 0
0 0 0 0 0 0 0 0 0 0 0 0 0 0 0 0 0 0 0 0 0 0 0 0 0 0 0 0 0 0 0 0 0 0 0 0 0 0 0 0 0 0 0 0
0 0 0 0 0 0 0 0 0 0 0 0 0 0 0 0 0 0 0 0 0 0 0 0 0 0 0 0 0 0 0 0 0 0 0 0 0 0 0 0 0 0 0 0
0 0 0 0 0 0 0 0 0 0 0 0 0 0 0 0 0 0 0 0 0 0 0 0 0 0 0 0 0 0 0 0 0 0 0 0 0 0 0 0 0 0 0 0
0 0 0 0 0 0 0 0 0 0 0 0 0 0 0 0 0 0 0 0 0 0 0 0 0 0 0 0 0 0 0 0 0 0 0 0 0 0 0 0 0 0 0 0
0 0 0 0 0 0 0 0 0 0 0 0 0 0 0 0 0 0 0 0 0 0 0 0 0 0 0 0 0 0 0 0 0 0 0 0 0 0 0 0 0 0 0 0
0 0 0 0 0 0 0 0 0 0 0 0 0 0 0 0 0 0 0 0 0 0 0 0 0 0 0 0 0 0 0 0 0 0 0 0 0 0 0 0 0 0 0 0
0 0 0 0 0 0 0 0 0 0 0 0 0 0 0 0 0 0 0 0 0 0 0 0 0 0 0 0 0 0 0 0 0 0 0 0 0 0 0 0 0 0 0 0
0 0 0 0 0 0 0 0 0 0 0 0 0 0 0 0 0 0 0 0 0 0 0 0 0 0 0 0 0 0 0 0 0 0 0 0 0 0 0 0 0 0 0 0
Wind_Speed
4 3 3 4 5 5 5 6 7 4 2 4 7 8 7 4 4 4 3 2 1 1 1 2 2 1 1 1 1 1 1 1 1 0 0 1 1 1 1 1 1 2 2 2
3 4 4 4 4 5 5 6 7 4 2 4 6 9 7 5 4 3 3 2 1 1 1 1 2 1 1 1 0 1 1 1 1 1 1 1 1 1 2 2 2 2 2 2
4 1 1 2 3 4 6 5 5 5 5 5 5 7 7 5 4 4 3 2 1 2 1 1 1 1 1 1 1 1 1 1 1 1 1 1 1 1 1 2 2 3 3 3
2 1 2 2 3 3 4 3 5 5 4 3 2 4 4 3 2 2 2 1 1 1 1 1 1 1 1 1 1 1 1 1 1 1 1 2 2 2 3 2 2 3 3 3
1 1 1 3 2 2 2 4 4 4 4 5 4 4 5 4 3 3 2 1 0 0 0 0 1 1 0 1 0 1 1 1 1 1 2 2 3 3 2 2 3 3 3 3
2 0 1 1 1 1 2 3 4 4 2 4 6 6 4 2 3 2 1 2 2 2 1 1 1 1 1 1 0 1 1 2 1 2 2 3 3 3 3 3 3 3 2 2
2 3 2 1 1 1 1 1 1 1 2 5 3 4 4 1 3 2 1 2 2 2 2 2 2 1 1 1 1 1 2 2 2 2 3 3 4 4 4 4 3 3 3 2
2 2 3 1 0 1 2 2 1 2 3 2 1 4 1 2 3 3 2 2 2 3 2 2 1 1 1 1 1 2 2 3 2 2 3 3 4 3 3 4 3 4 3 3
1 1 2 1 1 1 1 2 1 1 3 4 5 3 1 1 2 2 3 4 3 3 3 2 2 2 2 2 2 2 3 3 3 3 3 3 3 3 4 4 4 3 3 3
2 1 1 2 1 1 2 1 0 1 2 4 4 3 2 1 1 1 2 3 3 4 3 2 2 2 2 2 2 2 3 3 3 3 4 3 3 3 3 3 3 3 3 3
1 0 1 2 3 2 1 1 1 2 3 3 4 2 1 2 2 1 2 3 3 4 3 2 3 2 3 2 2 3 3 3 3 3 4 4 4 3 3 3 3 3 3 3
0 1 2 1 1 1 1 1 2 2 3 3 3 4 1 3 3 2 2 3 4 4 3 3 3 3 3 3 3 3 3 3 3 3 4 4 4 3 3 3 3 2 3 3
1 1 1 1 0 0 1 2 1 1 2 3 4 5 0 2 3 3 3 4 4 5 4 3 3 3 3 3 3 3 4 4 4 4 4 4 3 3 3 3 3 2 2 3
1 1 3 4 2 1 3 4 3 2 3 5 6 7 6 4 4 5 4 4 4 4 4 3 3 3 3 3 3 4 4 4 4 4 4 3 3 3 3 3 2 2 2 2
1 2 3 5 5 4 5 6 6 8 7 7 7 7 8 5 5 4 3 4 5 5 5 4 4 3 3 4 4 4 4 4 4 4 3 3 3 3 2 2 2 2 2 2
1 2 2 4 5 5 7 8 8 9 8 9 9 11 6 5 4 4 4 4 5 5 5 5 5 4 4 4 4 5 5 5 4 3 3 3 2 2 2 3 2 2 2 2
2 1 1 3 1 3 7 8 9 6 6 6 9 8 4 4 4 4 5 4 4 5 5 6 6 5 4 4 4 4 4 4 3 3 3 3 2 2 2 3 2 2 2 2
3 2 2 2 2 6 5 1 4 5 6 6 5 5 4 5 5 5 3 2 3 5 5 5 5 5 5 4 4 4 4 3 3 3 3 3 2 2 3 2 2 3 2 1
2 3 2 2 3 7 3 1 2 3 6 4 5 5 4 3 4 3 1 2 3 4 4 4 4 5 5 4 4 3 4 3 3 3 3 3 2 2 2 3 3 2 2 1
1 1 2 2 3 5 3 0 1 2 5 2 2 3 2 2 3 3 3 4 4 4 3 4 4 4 4 4 3 3 3 3 4 4 4 3 2 2 2 2 2 2 2 2
2 2 4 4 5 7 2 0 1 2 5 2 1 2 1 2 3 4 4 4 4 4 4 4 4 4 4 4 3 3 3 3 4 4 4 3 3 2 2 2 2 1 1 1
6 5 5 4 5 8 1 3 3 4 2 1 2 1 2 3 3 3 4 4 4 4 4 4 4 4 3 3 3 3 3 4 4 4 4 3 3 3 3 2 2 1 1 1
5 6 4 6 7 2 4 4 3 1 2 2 2 1 1 3 3 4 3 4 4 4 4 4 4 4 4 3 3 3 4 4 4 3 3 3 3 3 2 2 2 2 1 1
3 2 2 4 6 4 4 3 2 2 3 3 2 2 1 3 4 4 4 4 4 4 4 4 3 4 4 4 3 3 4 4 3 3 3 3 3 3 3 2 2 1 2 2
3 4 3 6 5 5 4 3 3 3 2 2 2 2 2 3 3 4 4 4 4 4 3 3 3 3 4 4 4 4 4 3 3 3 3 3 2 2 3 3 2 2 1 1
4 5 5 6 4 3 4 2 2 2 3 3 3 3 3 2 3 3 3 3 3 3 2 2 3 3 3 4 4 4 4 3 3 3 3 2 2 2 2 2 3 4 3 4
Wind_Direction
186 214 226 235 234 265 286 280 280 286 299 271 259 264 261 249 236 235 225 212 195 182 148 134 130 127 118 95 101 150 167 178 176 223 264 260 271 272 268 241 237 233 242 252
201 232 252 265 261 271 273 273 275 283 268 278 272 268 262 240 232 229 226 216 204 217 180 143 139 136 137 146 173 184 193 197 195 212 244 238 250 258 268 268 251 243 234 237
226 252 270 264 270 271 266 265 282 293 304 266 276 271 235 203 206 212 212 199 199 200 216 170 139 125 142 183 216 248 227 214 207 209 243 277 280 275 271 271 254 252 245 238
247 297 292 271 271 274 272 313 304 299 294 272 248 283 253 187 198 180 181 175 197 210 214 212 148 146 184 221 219 244 233 223 212 204 227 238 249 252 255 259 253 252 245 238
234 105 270 257 276 287 290 326 296 278 271 283 248 250 259 195 206 200 185 156 12 10 201 199 144 132 116 72 24 253 251 269 244 235 229 242 254 261 264 264 264 264 255 241
245 130 326 307 318 283 308 308 275 245 254 261 230 218 258 210 196 142 81 51 32 21 37 53 78 84 84 78 20 300 266 271 264 250 247 243 250 256 263 266 268 267 261 250
213 182 149 320 274 208 278 1 341 265 221 243 212 213 239 119 85 97 79 42 43 34 34 31 35 33 23 10 313 305 309 282 275 263 258 252 249 247 246 255 257 263 264 262
265 210 152 145 167 220 236 229 201 251 266 298 302 233 206 92 76 64 77 70 56 31 19 23 27 8 345 324 322 317 308 299 290 271 267 262 253 245 246 252 256 255 256 257
297 282 115 106 342 316 222 230 306 277 282 271 240 210 150 102 84 65 57 47 37 24 13 14 13 354 334 321 312 307 303 299 298 289 274 268 262 251 247 254 255 255 257 264
344 293 194 136 230 295 302 308 71 211 269 275 260 227 216 178 120 65 48 30 16 11 2 8 354 341 328 316 310 305 295 291 292 298 288 282 274 263 254 256 261 260 260 263
6 265 238 184 194 196 198 219 245 257 259 264 283 271 21 113 101 89 21 8 356 343 338 339 333 329 317 310 313 308 300 299 298 293 289 286 280 271 263 258 260 263 260 260
5 269 260 221 96 0 277 238 196 216 263 243 264 265 12 84 66 41 3 353 343 339 331 334 329 326 321 321 319 316 315 311 306 299 289 282 281 281 273 267 265 266 268 264
136 173 273 274 334 322 261 248 240 249 279 246 243 256 223 63 11 1 353 341 335 334 333 339 336 330 323 321 320 319 318 315 313 308 296 288 285 281 277 270 271 270 271 271
95 221 215 231 249 204 236 236 224 200 225 252 241 263 281 305 323 330 334 327 325 329 335 337 337 334 330 326 326 325 320 316 312 303 290 284 286 284 284 281 275 273 272 276
94 245 246 267 273 253 245 234 213 215 228 240 263 274 279 298 309 310 316 326 326 330 337 334 334 331 334 334 333 328 319 315 311 303 293 286 293 298 302 294 278 273 277 282
92 270 297 271 251 247 258 246 227 230 239 250 269 277 284 306 316 322 324 321 320 330 334 336 332 325 325 325 323 323 318 314 316 315 298 295 301 303 301 299 290 277 278 280
174 190 259 264 282 312 266 230 206 210 216 214 240 257 308 316 314 310 309 311 322 327 325 326 326 321 316 316 315 311 308 313 316 312 309 313 310 297 294 295 294 278 266 268
163 176 231 276 322 253 242 183 181 211 244 230 248 275 294 295 303 299 294 316 318 315 314 319 326 329 323 315 311 305 308 317 317 312 313 323 320 314 304 293 284 278 274 270
183 175 230 252 262 270 261 233 170 200 270 222 235 273 298 328 324 299 340 340 314 313 313 317 324 321 319 314 312 321 323 325 323 318 319 320 318 310 305 288 283 280 284 287
47 142 209 237 254 256 258 171 123 123 275 256 222 263 293 348 313 285 343 344 331 329 331 331 330 326 322 320 325 334 324 329 324 322 319 317 305 293 296 295 288 294 289 286
160 187 210 229 245 262 261 166 112 180 264 298 235 242 245 252 252 280 316 323 327 328 327 330 326 326 328 331 337 331 329 328 321 319 320 320 322 320 316 310 302 296 298 305
176 182 198 197 225 253 165 133 192 238 296 291 274 256 265 279 294 310 316 318 324 326 327 329 328 328 332 338 343 336 329 324 326 325 324 326 333 333 333 339 338 327 312 302
198 197 196 202 219 239 173 202 228 268 285 286 275 285 276 283 292 303 307 311 313 316 319 321 323 327 332 337 339 326 320 324 327 325 324 331 339 337 340 350 347 348 348 326
226 202 233 261 263 270 246 239 261 275 271 286 291 294 278 275 286 297 301 308 313 315 316 321 328 329 330 336 337 319 317 329 332 327 328 334 341 343 347 348 348 352 349 346
211 173 222 255 274 295 269 252 272 285 288 295 305 293 277 272 284 287 292 297 302 306 313 321 324 322 323 329 333 334 333 341 336 328 332 339 347 346 349 350 348 341 338 352
196 187 197 234 239 231 265 288 320 299 293 290 296 304 304 282 284 291 290 293 296 300 312 322 323 321 321 327 329 333 334 342 339 331 333 335 338 339 342 345 352 0 0 4